Wind_Speed
22 22 22 22 21 20 20 20 19 19 19 18 18 18 18 18 18 19 19 18 18 19 19 19 20 19 19 18 18 18 17 17 18 18 17 17 17 17
25 24 24 24 23 23 22 22 22 21 21 20 20 20 19 19 20 20 20 20 20 20 20 20 21 21 21 20 19 19 19 19 18 19 19 19 18 18
26 26 26 26 26 25 25 24 24 23 23 22 22 21 21 21 21 21 21 21 21 21 21 22 22 22 21 21 21 20 20 20 20 19 19 19 19 18
27 27 27 27 27 27 27 27 26 26 25 25 24 23 23 22 22 22 22 22 22 22 22 22 23 22 22 22 22 22 21 21 21 20 20 20 19 19
28 29 29 28 28 29 29 28 28 28 28 27 26 25 24 24 24 24 24 24 24 23 22 22 23 22 23 23 23 23 22 22 22 21 21 21 21 21
30 30 30 30 30 30 30 30 30 30 29 29 28 27 26 25 25 26 25 25 24 24 24 23 23 23 23 23 24 24 24 24 23 22 22 22 22 22
31 31 31 31 30 30 30 30 30 30 30 30 29 29 28 27 26 26 26 25 25 25 25 24 24 23 23 24 24 24 24 24 23 23 23 23 23 23
31 31 30 31 30 30 30 30 31 30 30 30 29 28 28 27 27 27 26 26 26 25 25 25 25 24 25 25 25 25 25 24 24 24 24 24 24 24
31 31 30 30 30 30 30 31 30 30 30 30 30 29 28 28 28 28 27 27 26 26 26 26 26 26 26 26 26 26 26 26 26 25 25 25 25 24
31 31 31 31 31 31 30 31 31 30 30 30 31 31 30 29 28 28 28 28 28 27 27 27 27 27 27 27 27 27 27 27 27 27 26 26 26 25
33 33 33 33 32 32 32 32 32 31 30 30 31 31 31 30 29 29 29 28 28 27 27 27 27 27 27 27 28 28 28 28 28 27 27 26 26 26
34 34 34 33 33 33 33 32 32 32 32 32 32 31 30 30 29 29 29 29 29 28 28 27 27 27 27 27 27 28 28 29 28 28 27 27 27 27
34 35 34 35 34 34 34 34 33 33 33 33 33 32 31 30 30 29 29 29 29 29 29 29 29 28 28 28 28 28 28 28 28 28 27 28 28 28
36 36 36 36 35 35 36 35 34 34 34 34 33 33 32 31 31 30 30 30 30 30 30 30 29 29 29 28 28 28 28 28 28 29 29 29 29 29
36 37 36 36 36 36 35 35 35 35 34 34 33 33 32 32 32 31 31 31 31 31 31 31 30 29 29 29 28 28 28 28 29 29 30 30 29 29
37 37 36 36 36 36 36 35 35 35 34 34 34 33 33 32 32 32 32 32 32 32 31 32 31 31 31 30 30 29 29 29 29 28 29 29 29 29
36 36 36 36 36 36 35 34 34 34 34 34 33 34 33 33 33 33 32 32 32 32 32 32 32 32 31 31 30 30 30 30 29 29 30 30 29 29
35 36 36 36 35 34 33 33 34 34 34 34 33 33 33 33 33 32 32 32 32 32 33 33 33 32 32 31 31 31 31 30 29 30 30 29 29 28
34 34 34 34 33 33 33 33 33 33 33 33 33 32 33 33 33 33 32 32 31 32 32 32 33 33 32 32 32 31 31 30 29 29 28 28 28 28
34 34 34 34 33 33 32 32 32 32 32 32 32 32 32 32 33 33 32 32 32 32 32 32 32 32 33 32 32 31 31 30 29 29 28 28 28 28
34 34 33 33 33 33 33 32 32 32 32 32 31 32 31 32 32 32 32 32 32 32 31 31 31 32 32 32 32 32 31 30 30 30 29 28 28 28
31 32 32 32 31 32 32 32 32 32 31 31 31 31 31 31 31 32 32 32 32 32 31 31 31 31 32 32 32 31 30 30 30 30 29 29 28 28
30 31 31 30 30 30 30 30 31 31 31 31 31 31 31 30 31 31 31 31 32 31 31 31 31 31 31 32 32 32 30 29 30 30 29 29 28 28
Wind_Direction
275 275 274 275 275 274 274 275 275 276 277 278 278 277 275 273 271 270 268 266 266 268 269 269 268 268 269 267 269 269 268 268 270 271 274 276 277 277
276 275 274 272 273 272 272 273 274 274 275 276 276 276 275 273 272 271 269 267 268 269 269 269 268 268 267 268 269 269 270 271 271 271 273 274 276 275
276 275 274 273 272 271 270 270 271 272 273 274 274 274 273 273 272 271 269 269 270 269 269 268 267 267 267 267 268 268 269 272 274 273 273 272 274 274
277 276 275 274 273 272 270 269 270 270 272 272 272 273 272 273 273 273 270 270 272 271 269 267 266 264 265 266 267 266 268 270 272 273 273 272 271 272
276 276 275 274 274 272 271 270 269 269 270 271 270 270 270 271 272 273 272 270 270 270 270 268 266 265 265 265 266 266 266 268 270 272 273 272 272 272
276 275 274 274 274 273 271 270 269 269 268 269 269 268 268 269 271 272 272 270 269 268 268 268 266 266 266 265 266 266 266 267 269 271 272 272 272 273
275 274 274 273 272 271 270 270 269 268 268 268 267 267 266 267 268 269 270 269 267 267 267 267 267 266 266 266 266 266 267 266 268 270 271 273 272 272
275 274 273 271 269 269 268 269 268 268 266 266 266 265 265 266 266 267 267 267 267 266 266 267 268 268 267 266 265 266 267 267 268 269 270 272 273 272
274 273 272 271 269 268 266 267 268 268 266 264 263 264 266 266 266 265 265 266 266 266 266 266 267 268 268 267 266 265 265 266 268 269 270 271 272 272
273 273 272 270 268 266 265 266 266 266 265 263 262 264 264 266 265 264 265 265 265 265 265 265 265 267 268 267 266 267 266 266 267 268 268 270 271 270
273 273 273 270 268 266 266 266 266 265 265 264 263 263 265 265 265 265 264 263 263 264 264 264 265 266 266 267 268 268 268 267 266 267 267 268 269 269
273 274 273 272 270 267 266 267 266 265 265 265 264 263 262 263 264 264 263 262 261 262 262 263 264 265 266 267 267 268 268 268 267 265 265 267 268 269
271 272 273 272 269 266 265 265 265 264 265 264 264 262 261 262 263 264 263 263 262 261 261 262 263 264 266 266 267 267 267 267 266 264 265 268 268 268
272 272 272 270 269 266 264 264 264 263 263 263 261 261 261 262 261 262 262 262 261 262 262 263 263 264 264 265 266 265 265 266 267 267 267 268 268 268
272 272 270 269 267 265 264 265 265 264 263 261 260 260 261 260 261 261 261 260 261 262 263 263 263 263 264 266 265 265 264 265 267 268 268 268 268 267
272 271 270 269 267 266 264 265 264 263 261 260 260 260 260 260 259 261 261 261 262 262 263 264 262 263 264 266 266 266 266 265 266 267 268 267 267 266
271 269 269 268 266 265 263 262 262 261 259 260 260 259 258 258 259 260 261 262 262 262 262 263 263 262 262 262 264 265 266 265 265 267 268 268 268 266
271 270 269 267 264 263 262 261 260 260 260 259 259 258 257 257 257 257 259 260 262 263 264 264 262 261 260 260 262 264 265 264 264 266 268 267 265 263
270 269 267 265 263 263 262 262 261 259 258 257 257 257 258 257 258 259 260 260 263 264 264 264 263 262 262 261 262 263 264 264 264 265 267 266 263 262
269 268 266 265 264 264 262 261 260 258 257 257 257 258 258 258 258 259 260 260 262 264 264 264 264 263 262 260 261 261 262 263 264 265 266 266 263 260
269 267 266 267 265 262 259 258 256 256 257 258 257 257 257 258 259 259 260 259 259 262 264 265 264 264 264 261 259 259 259 261 262 262 264 264 262 260
271 268 267 266 264 260 258 257 256 255 256 256 256 256 257 257 258 258 258 258 260 261 263 264 264 263 263 263 261 259 258 259 260 260 262 263 262 262
270 269 267 265 261 259 257 255 255 256 256 256 256 256 256 257 257 257 257 259 260 260 261 263 263 262 263 263 262 259 258 257 257 258 260 261 261 261
Height
5806 5805 5804 5804 5803 5802 5802 5801 5801 5800 5799 5798 5797 5796 5796 5795 5795 5794 5794 5794 5794 5795 5794 5794 5794 5795 5795 5795 5795 5795 5795 5795 5795 5795 5795 5795 5795 5794
5799 5798 5798 5797 5796 5796 5796 5795 5794 5794 5794 5793 5792 5791 5790 5790 5789 5789 5789 5789 5789 5789 5789 5789 5789 5789 5789 5790 5790 5790 5790 5790 5790 5791 5790 5790 5790 5790
5791 5791 5790 5790 5789 5789 5789 5788 5788 5788 5787 5787 5786 5786 5785 5784 5784 5784 5784 5784 5784 5784 5783 5783 5783 5783 5784 5784 5784 5784 5785 5785 5785 5785 5785 5785 5785 5785
5784 5783 5782 5781 5781 5781 5781 5781 5780 5780 5780 5780 5780 5779 5779 5778 5778 5778 5778 5777 5777 5777 5777 5777 5777 5777 5778 5778 5778 5778 5779 5779 5780 5780 5780 5780 5780 5779
5775 5774 5774 5773 5773 5773 5772 5772 5772 5772 5772 5772 5773 5772 5772 5772 5772 5771 5771 5771 5771 5771 5771 5771 5771 5771 5771 5771 5772 5772 5773 5774 5774 5774 5774 5774 5774 5773
5766 5765 5765 5764 5764 5764 5763 5763 5764 5764 5764 5764 5764 5765 5765 5765 5765 5764 5764 5764 5764 5764 5764 5764 5764 5764 5764 5765 5765 5766 5766 5767 5767 5767 5767 5767 5767 5767
5757 5756 5755 5755 5754 5754 5754 5754 5754 5754 5755 5755 5756 5756 5757 5757 5757 5757 5756 5756 5756 5756 5757 5757 5757 5757 5757 5758 5758 5759 5759 5760 5760 5760 5761 5760 5761 5761
5747 5746 5745 5745 5745 5745 5745 5745 5745 5745 5746 5746 5747 5747 5748 5748 5749 5748 5748 5748 5749 5749 5749 5749 5749 5749 5750 5751 5751 5752 5752 5753 5753 5753 5754 5754 5753 5753
5737 5736 5736 5735 5735 5736 5736 5736 5736 5736 5737 5737 5738 5738 5739 5740 5740 5740 5740 5740 5741 5741 5741 5741 5742 5742 5742 5743 5744 5744 5745 5745 5746 5746 5746 5746 5746 5746
5727 5726 5726 5725 5725 5726 5726 5726 5726 5727 5727 5728 5729 5730 5730 5730 5731 5731 5731 5732 5732 5733 5733 5734 5734 5734 5735 5735 5736 5736 5737 5738 5738 5738 5738 5738 5739 5739
5717 5716 5715 5715 5715 5715 5716 5716 5717 5717 5718 5718 5719 5720 5721 5721 5722 5722 5723 5724 5724 5725 5725 5725 5726 5726 5727 5727 5728 5728 5728 5729 5730 5730 5730 5730 5730 5730
5707 5706 5705 5705 5705 5705 5705 5706 5706 5707 5708 5709 5709 5710 5711 5712 5713 5713 5714 5715 5716 5716 5717 5718 5718 5718 5719 5719 5719 5720 5720 5720 5721 5721 5721 5722 5722 5722
5695 5695 5694 5694 5694 5694 5694 5695 5696 5697 5697 5698 5699 5700 5701 5703 5704 5704 5705 5706 5707 5707 5708 5709 5710 5710 5711 5711 5711 5712 5712 5712 5712 5712 5712 5713 5713 5713
5684 5683 5683 5682 5682 5682 5683 5684 5684 5686 5687 5688 5689 5690 5691 5693 5694 5695 5695 5696 5697 5698 5699 5700 5701 5701 5702 5702 5703 5703 5703 5703 5703 5703 5704 5704 5704 5704
5672 5671 5671 5670 5670 5671 5672 5672 5673 5674 5676 5677 5679 5680 5681 5682 5683 5685 5685 5686 5687 5688 5689 5690 5691 5692 5693 5693 5694 5694 5694 5695 5695 5695 5695 5695 5695 5695
5659 5659 5659 5658 5658 5659 5660 5661 5662 5663 5665 5666 5668 5669 5670 5672 5673 5674 5675 5676 5677 5679 5680 5680 5681 5682 5683 5684 5684 5684 5685 5685 5686 5686 5686 5686 5686 5686
5647 5646 5646 5646 5647 5647 5648 5649 5651 5652 5654 5655 5656 5658 5660 5661 5663 5664 5665 5666 5667 5668 5669 5670 5671 5672 5673 5674 5674 5675 5675 5676 5676 5676 5677 5677 5677 5677
5635 5634 5634 5635 5635 5636 5637 5638 5640 5641 5643 5644 5646 5647 5649 5650 5652 5653 5655 5656 5657 5658 5658 5659 5660 5661 5663 5664 5664 5665 5665 5665 5666 5666 5667 5667 5667 5667
5623 5623 5623 5624 5624 5625 5626 5627 5629 5630 5632 5634 5635 5637 5638 5640 5641 5643 5644 5645 5646 5647 5648 5649 5649 5651 5652 5653 5654 5654 5655 5656 5656 5656 5657 5657 5658 5658
5612 5612 5613 5613 5614 5614 5615 5616 5618 5619 5621 5623 5625 5626 5628 5629 5631 5632 5633 5635 5636 5637 5637 5638 5639 5640 5642 5643 5643 5644 5644 5645 5646 5647 5648 5648 5649 5649
5602 5602 5602 5602 5603 5603 5605 5606 5608 5609 5611 5613 5614 5616 5617 5619 5620 5621 5623 5624 5625 5626 5627 5628 5629 5630 5630 5631 5633 5633 5634 5635 5636 5637 5638 5639 5639 5640
5591 5591 5592 5592 5592 5593 5594 5595 5597 5599 5601 5603 5604 5606 5607 5609 5610 5611 5612 5614 5615 5616 5617 5618 5618 5619 5620 5621 5622 5623 5624 5625 5627 5627 5628 5630 5630 5632
5582 5582 5581 5582 5582 5583 5584 5585 5587 5589 5591 5593 5594 5596 5597 5598 5599 5601 5602 5603 5604 5605 5607 5607 5608 5609 5610 5611 5612 5613 5614 5616 5617 5618 5619 5620 5621 5623